Weather in Noykino

Russia / Orenburg Oblast     53°47′23″N   52°43′11″E
temp.,
°C
wind,
m/s
gust,
m/s
humid.,
%
clouds,
%
prec.,
mm/h
press.,
hPa
HPBL,
m
2 march, tue
tue223:00−21w229843 0.0 102120
02:00−22wsw2210015 0.0 102020
05:00−22ssw3410042 0.0 101854
08:00−18s5998100 0.1 1015245
11:00−13ssw71195100 0.2 1012414
14:00−8sw81494100 1.4 1009668
17:00−6sw81495100 2.2 1006686
20:00−4sw81496100 1.4 1003697
3 march, wed
wed323:00−2sw71396100 2.4 1002633
02:00−2sw51097100 0.8 1001434
05:00−2wsw3697100 1.0 1001222
08:00−8w229799 0.1 100121
11:00−6w249699 0.1 1002180
14:00−4w349496 0.0 1002344
17:00−2w459397 0.1 1002538
20:00−4w3696100 0.2 1003270
4 march, thu
thu423:00−7w4896100 0.4 1005220
02:00−8nw4109492 0.1 1005346
05:00−13wnw349780 0.1 100748
08:00−15wsw339880 0.0 100826
11:00−11sw599584 0.1 1008280
14:00−7sw61094100 0.2 1007425
17:00−6sw71293100 0.3 1006626
20:00−5sw81694100 0.6 1003819
5 march, fri
fri523:00−2sw91796100 1.4 1002846
02:00−1sw101791100 0.9 1000951
05:00−1sw101791100 1.1 1000914
08:00−2sw101694100 0.3 1001860
11:00−1wsw91596100 1.6 1002828
14:000wnw6999100 1.6 1004583
17:000sw61199100 2.0 1007682
20:00−3n4697100 2.7 1008261
6 march, sat
sat623:00−4w2496100 3.0 101085
02:00−6nnw1194100 0.1 101021
05:00−6e2497100 0.8 1009135
08:00−3se4998100 2.8 1005316
11:00+1ssw816100100 6.1 1001703
14:000sw101698100 2.1 999886
17:00+1sw91699100 3.8 999788
20:00−7wnw61190100 1.4 1002446